Location: Hilderbrand
(37.5756°N, 89.8540°W)
Time: 11:30:04
(UTC+00:00)

MOS 1 Rocket - Pass Details

Date: 15 November 2025
Orbit: 610 x 813 km, 97.4° (Epoch: 05 December)

Event Time Altitude Azimuth Distance (km) Brightness Sun altitude
Rises 23:33:21 0° 149° (SSE) 2,857 6.3 -9.2°
Reaches altitude 10° 23:35:36 10° 142° (SE) 1,962 5.4 -9.7°
Maximum altitude 23:39:34 40° 73° (ENE) 924 3.5 -10.4°
Drops below altitude 10° 23:43:39 10° 4° (N) 2,029 5.5 -11.2°
Sets 23:46:00 0° 357° (N) 2,968 6.4 -11.7°
